Content
SEND FEEDBACK

Daily
Averages
Monthly
Summary
United States of America

NEW YORK - CENTRAL PARK, NEW YORK


Home > North America > United States > New York
Elevation: 14 feet     Latitude: 40 47N     Longitude: 073 58W

WEATHER
 
SELECT A DAY
Number of Records: 148,218;   Date Range: 11/1/95 - 8/30/14
 
SHARE

PRINT THIS DATA

[ ← Previous Day ]
WEATHER ALMANAC - SEPTEMBER 1, 2013
[ Next Day → ]
[ °C ]   °F
Weather ElementAverageHighLow
Temperature78.6 °F82.9 °F (1:39 pm)75 °F (5:51 am)
Dewpoint70.4 °F72 °F (8:51 pm)69.1 °F (1:51 am)
Humidity76.1 %90 % (11:51 pm)65 % (1:39 pm)
Barometer29.84 in29.89 in (10:38 am)29.80 in (3:51 am)
Wind Speed2.4 mph8.1 mph (4:02 pm)
Weather ElementAverage
Visibility8.7 mi
Wind DirectionNNE (22.5 °)

Weather ElementTotal
Precipitation---
Cooling Degree Days14 (Base 65)
Growing Degree Days29 (Base 50)
Averaged from 32 records on September 1, 2013
WEATHER CONDITIONS BREAKOUT
WIND DIRECTION BREAKOUT
WEATHER BY HOUR - SEPTEMBER 1, 2013
[ °C ]   °F
Local TimeTemperatureDewpointHumidityBarometerVisibilityWind DirectionWind SpeedGust SpeedPrecipitationEventsConditions
1:51 AM78.1 °F69.1 °F74 %29.82 in10.0 miNorthPartly Cloudy
2:51 AM77.0 °F69.1 °F76 %29.82 in10.0 miCalmPartly Cloudy
3:51 AM77.0 °F69.1 °F76 %29.80 in10.0 miVariable4.6 mphClear
4:51 AM77.0 °F70.0 °F79 %29.82 in10.0 miVariable4.6 mphClear
5:51 AM75.0 °F69.1 °F82 %29.83 in10.0 miWSW (240°)4.6 mphScattered Clouds
6:51 AM75.9 °F69.1 °F79 %29.84 in10.0 miVariable4.6 mphScattered Clouds
7:51 AM77.0 °F69.1 °F76 %29.85 in10.0 miCalmPartly Cloudy
8:36 AM78.1 °F70.0 °F76 %29.88 in10.0 miCalmMostly Cloudy
8:51 AM78.1 °F70.0 °F76 %29.85 in10.0 miCalmOvercast
9:51 AM78.1 °F71.1 °F79 %29.85 in9.0 miCalmOvercast
10:38 AM77.0 °F71.1 °F82 %29.89 in8.0 miVariable3.5 mphOvercast
10:51 AM77.0 °F71.1 °F82 %29.86 in7.0 miVariable3.5 mphOvercast
11:51 AM78.1 °F71.1 °F79 %29.86 in6.0 miCalmHaze
12:13 PM80.1 °F70.0 °F71 %29.87 in6.0 miCalmHaze
12:27 PM81.0 °F71.1 °F72 %29.86 in6.0 miCalmHaze
12:51 PM82.0 °F70.0 °F67 %29.83 in8.0 miVariable4.6 mphPartly Cloudy
1:39 PM82.9 °F70.0 °F65 %29.86 in9.0 miCalmMostly Cloudy
1:51 PM82.0 °F70.0 °F67 %29.83 in9.0 miCalmMostly Cloudy
2:28 PM82.9 °F70.0 °F65 %29.85 in9.0 miCalmScattered Clouds
2:51 PM82.9 °F70.0 °F65 %29.82 in9.0 miVariable5.8 mphMostly Cloudy
3:31 PM81.0 °F71.1 °F72 %29.84 in9.0 miVariable5.8 mphOvercast
3:51 PM81.0 °F70.0 °F69 %29.82 in9.0 miSSE (160°)5.8 mphMostly Cloudy
4:02 PM82.0 °F71.1 °F69 %29.84 in9.0 miSouth (170°)8.1 mphScattered Clouds
4:51 PM81.0 °F71.1 °F72 %29.81 in9.0 miCalmClear
5:51 PM79.0 °F71.1 °F77 %29.81 in9.0 miVariable3.5 mphClear
6:51 PM78.1 °F71.1 °F79 %29.81 in8.0 miNorthClear
7:51 PM77.0 °F71.1 °F82 %29.81 in8.0 miSSE (150°)3.5 mphClear
8:51 PM77.0 °F72.0 °F84 %29.83 in8.0 miCalmClear
9:51 PM77.0 °F71.1 °F82 %29.84 in9.0 miCalmClear
10:51 PM75.9 °F71.1 °F85 %29.83 in10.0 miVariable4.6 mphClear
11:11 PM75.0 °F71.1 °F87 %29.85 in7.0 miVariable4.6 mphPartly Cloudy
11:51 PM75.0 °F72.0 °F90 %29.82 in7.0 miCalmScattered Clouds
Hourly data recorded from KNYC, located miles away from New York - Central Park, New York







STORIES FROM OUR PARTNERS